Weather History for Atlanta Fulton, GA

Change the Weather History Date:

Tuesday, April 8, 2014

  Actual Average Record
Temperature  
Mean Temperature 55 °F 59 °F  
Max Temperature 63 °F 71 °F 82 °F (1999)
Min Temperature 46 °F 47 °F 28 °F (2007)
Degree Days  
Heating Degree Days 10 7  
Month to date heating degree days 37 58  
Since 1 July heating degree days 3016 2757  
Cooling Degree Days 0 1  
Month to date cooling degree days 7 6  
Year to date cooling degree days 7 12  
Growing Degree Days 4 (Base 50)    
Moisture  
Dew Point 41 °F    
Average Humidity 63    
Maximum Humidity 86    
Minimum Humidity 39    
Precipitation  
Precipitation 0.00 in 0.12 in 1.84 in (1973)
Month to date precipitation 3.45 1.00  
Year to date precipitation 12.14 14.98  
Sea Level Pressure  
Sea Level Pressure 29.77 in    
Wind  
Wind Speed 7 mph (WNW)    
Max Wind Speed 20 mph    
Max Gust Speed 31 mph    
Visibility 10 miles    
Events      
T = Trace of Precipitation, MM = Missing Value Source: NWS Daily Summary

Daily Weather History Graph

Daily Weather History Graph

Search for Another Location

Airport:

Trip Planner

Search our weather history database for the weather conditions in past years. The results will help you decide how hot, cold, wet, or windy it might be!

Date:

Astronomy

Apr. 08, 2014 Rise Set
Actual Time 7:16 AM EDT 8:03 PM EDT
Civil Twilight 6:50 AM EDT 8:29 PM EDT
Nautical Twilight 6:21 AM EDT 8:59 PM EDT
Astronomical Twilight 5:50 AM EDT 9:30 PM EDT
Moon 2:12 PM EDT (4/8) 3:12 AM EDT (4/8)
Length of Visible Light 13h 38m
Length of Day
12h 47m
Waxing Gibbous, 62% of the Moon is Illuminated
Apr 8
Waxing Gibbous
Apr 15
Full
Apr 22
Last Quarter
Apr 29
New
May 6
First Quarter

Hourly Weather History & Observations

Time (EDT) Temp. Windchill Dew Point Humidity Pressure Visibility Wind Dir Wind Speed Gust Speed Precip Events Conditions
12:53 AM 53.1 °F - 46.0 °F 77% 29.79 in 10.0 mi Calm Calm - N/A   Clear
1:29 AM 53.6 °F - 44.6 °F 72% 29.79 in 10.0 mi WSW 4.6 mph - N/A   Overcast
1:53 AM 53.1 °F - 46.0 °F 77% 29.78 in 10.0 mi WSW 4.6 mph - N/A   Overcast
2:35 AM 51.8 °F - 44.6 °F 76% 29.78 in 10.0 mi WNW 5.8 mph - N/A   Overcast
2:53 AM 52.0 °F - 44.1 °F 74% 29.77 in 10.0 mi WNW 5.8 mph - N/A   Scattered Clouds
3:18 AM 51.8 °F - 42.8 °F 71% 29.77 in 10.0 mi NW 12.7 mph - N/A   Mostly Cloudy
3:43 AM 50.0 °F - 42.8 °F 76% 29.77 in 10.0 mi WNW 9.2 mph - N/A   Scattered Clouds
3:53 AM 50.0 °F - 42.1 °F 74% 29.76 in 10.0 mi WNW 9.2 mph - N/A   Partly Cloudy
4:53 AM 48.0 °F - 42.1 °F 80% 29.76 in 10.0 mi West 5.8 mph - N/A   Clear
5:53 AM 46.9 °F - 42.1 °F 83% 29.75 in 10.0 mi West 4.6 mph - N/A   Clear
6:53 AM 46.0 °F 43.9 °F 42.1 °F 86% 29.74 in 10.0 mi West 4.6 mph - N/A   Partly Cloudy
7:53 AM 46.9 °F - 43.0 °F 86% 29.76 in 10.0 mi West 4.6 mph - N/A   Clear
8:53 AM 48.0 °F - 43.0 °F 83% 29.78 in 10.0 mi WNW 6.9 mph - N/A   Partly Cloudy
9:17 AM 48.2 °F - 42.8 °F 82% 29.79 in 10.0 mi WNW 9.2 mph - N/A   Overcast
9:53 AM 50.0 °F - 43.0 °F 77% 29.78 in 10.0 mi WNW 11.5 mph 17.3 mph N/A   Overcast
10:53 AM 53.1 °F - 42.1 °F 66% 29.78 in 10.0 mi NNW 15.0 mph 21.9 mph N/A   Mostly Cloudy
11:09 AM 53.6 °F - 42.8 °F 67% 29.80 in 10.0 mi NW 16.1 mph 24.2 mph N/A   Scattered Clouds
11:41 AM 55.4 °F - 39.2 °F 54% 29.79 in 10.0 mi NW 13.8 mph 24.2 mph N/A   Mostly Cloudy
11:53 AM 57.0 °F - 39.9 °F 53% 29.78 in 10.0 mi WNW 13.8 mph 21.9 mph N/A   Scattered Clouds
12:00 PM 55.4 °F - 39.2 °F 54% 29.79 in 10.0 mi WNW 15.0 mph 25.3 mph N/A   Scattered Clouds
12:53 PM 59.0 °F - 39.0 °F 48% 29.76 in 10.0 mi NW 16.1 mph 25.3 mph N/A   Scattered Clouds
1:53 PM 61.0 °F - 39.0 °F 44% 29.75 in 10.0 mi NW 13.8 mph 17.3 mph N/A   Partly Cloudy
2:53 PM 63.0 °F - 37.9 °F 40% 29.72 in 10.0 mi WNW 15.0 mph 20.7 mph N/A   Partly Cloudy
3:53 PM 62.1 °F - 37.0 °F 39% 29.71 in 10.0 mi North 11.5 mph 19.6 mph N/A   Mostly Cloudy
4:53 PM 62.1 °F - 37.0 °F 39% 29.72 in 10.0 mi WNW 8.1 mph 17.3 mph N/A   Mostly Cloudy
5:53 PM 61.0 °F - 37.9 °F 42% 29.73 in 10.0 mi NW 8.1 mph - N/A   Overcast
6:53 PM 60.1 °F - 37.9 °F 44% 29.74 in 10.0 mi NW 6.9 mph - N/A   Overcast
7:53 PM 59.0 °F - 39.0 °F 48% 29.75 in 10.0 mi West 5.8 mph - N/A   Overcast
8:53 PM 57.0 °F - 39.9 °F 53% 29.77 in 10.0 mi Calm Calm - N/A   Overcast
9:53 PM 52.0 °F - 43.0 °F 71% 29.80 in 10.0 mi Calm Calm - N/A   Mostly Cloudy
10:53 PM 52.0 °F - 42.1 °F 69% 29.80 in 10.0 mi Calm Calm - N/A   Clear
11:53 PM 53.1 °F - 42.1 °F 66% 29.81 in 10.0 mi Calm Calm - N/A   Overcast